CUTE-1 (CO-55) 1 27844U 03031E 26034.49149959 .00000381 00000+0 18433-3 0 9990 2 27844 98.6772 44.7182 0009054 208.2248 151.8442 14.24235794172642 CUBESAT XI-IV (CO-57) 1 27848U 03031J 26034.48377408 .00000316 00000+0 15816-3 0 9995 2 27848 98.6801 44.5306 0008660 227.7020 132.3425 14.23535418172359 CUBESAT XI-V 1 28895U 05043F 26034.66562825 .00002373 00000+0 38448-3 0 9993 2 28895 98.2772 187.6636 0013163 268.9293 91.0405 14.72159963 82106 CUTE-1.7+APD II (CO-65) 1 32785U 08021C 26034.60975358 .00007991 00000+0 52484-3 0 9995 2 32785 97.8157 13.4986 0010848 117.4853 242.7479 15.07856213965053 CANX-2 1 32790U 08021H 26034.45725339 .00005412 00000+0 39145-3 0 9991 2 32790 97.8515 11.8569 0012263 128.3489 231.8840 15.04402796964695 SEEDS II (CO-66) 1 32791U 08021J 26034.48164572 .00019703 00000+0 73306-3 0 9996 2 32791 97.7483 26.5409 0005531 74.4728 285.7120 15.27531158966840 SWISSCUBE 1 35932U 09051B 26034.26239358 .00001500 00000+0 30803-3 0 9992 2 35932 98.4133 299.7898 0005553 272.2455 87.8109 14.62154933869586 BEESAT-1 1 35933U 09051C 26034.47808650 .00001237 00000+0 25974-3 0 9993 2 35933 98.4060 299.9179 0004150 289.7239 70.3513 14.61445193869659 ITUPSAT1 1 35935U 09051E 26034.28425904 .00001145 00000+0 24767-3 0 9998 2 35935 98.4150 299.0496 0006434 300.5727 59.4837 14.60186562869192 TISAT 1 1 36799U 10035E 26034.28308263 .00023417 00000+0 91366-3 0 9994 2 36799 98.0632 329.6421 0003571 41.7763 318.3746 15.25928911847245 AEROCUBE 4.5A 1 38767U 12048K 26034.53070802 .00089115 00000+0 11902-2 0 9994 2 38767 64.6399 138.4199 0050792 221.4482 138.2805 15.56015436351665 STRAND-1 1 39090U 13009E 26034.44767379 .00000414 00000+0 15372-3 0 9995 2 39090 98.3854 217.9966 0007568 270.7996 89.2324 14.37062305677858 BRITE-AUSTRIA 1 39091U 13009F 26034.47380758 .00000256 00000+0 10170-3 0 9996 2 39091 98.3918 217.2431 0009088 280.7115 79.3048 14.36474337677857 NEE-01 PEGASO 1 39151U 13018B 26034.31746646 .00004266 00000+0 41773-3 0 9996 2 39151 98.0993 174.2914 0011945 242.6833 117.3170 14.92799554690724 POPACS 2 1 39269U 13055E 26034.45842081 .00016993 00000+0 30518-3 0 9997 2 39269 80.9952 296.7708 0434856 262.2140 92.9509 14.86282692643319 POPACS 3 1 39270U 13055F 26034.25967505 .00008233 00000+0 19796-3 0 9999 2 39270 81.0030 14.0842 0564488 117.0414 248.9548 14.53035306619081 ZACUBE-1 (TSHEPISOSAT) 1 39417U 13066B 26034.37807230 .00008504 00000+0 67867-3 0 9998 2 39417 97.8164 356.0421 0041164 338.4489 21.5000 14.99870845660664 WNISAT-1 1 39423U 13066H 26034.65522861 .00001128 00000+0 21515-3 0 9995 2 39423 97.6980 193.4605 0162591 292.7071 65.7012 14.57756894647275 TRITON-1 1 39427U 13066M 26034.62118573 .00005217 00000+0 63534-3 0 9997 2 39427 97.8317 307.4975 0090191 310.3314 49.0045 14.80959971654316 GOMX-1 1 39430U 13066Q 26034.63171365 .00003865 00000+0 58722-3 0 9990 2 39430 97.6575 243.4584 0130297 145.8804 215.0865 14.68944588650300 CUBEBUG-2 (LO-74) 1 39440U 13066AA 26034.31004873 .00004743 00000+0 45113-3 0 9991 2 39440 97.8772 342.9536 0060530 110.4829 250.2901 14.92535778657012 NEE-02 KRYSAOR 1 39441U 13066AB 26034.57643290 .00002802 00000+0 31428-3 0 9990 2 39441 97.8786 334.8986 0067778 146.5491 214.0033 14.85949766656351 FUNCUBE-1 (AO-73) 1 39444U 13066AE 26034.39204065 .00012652 00000+0 83145-3 0 9993 2 39444 97.8133 3.3806 0036407 300.4204 59.3427 15.07195789659495 UWE-3 1 39446U 13066AG 26034.41607620 .00007104 00000+0 62611-3 0 9993 2 39446 97.8548 349.8405 0051786 47.1426 313.4128 14.95717049657572 BRITE-CA1 (TORONTO) 1 40020U 14033L 26034.31095997 .00001048 00000+0 16583-3 0 9993 2 40020 97.9522 165.9021 0078682 346.4626 13.4470 14.72369020622517 DUCHIFAT-1 1 40021U 14033M 26034.56321097 .00050876 00000+0 10450-2 0 9993 2 40021 98.0704 77.0733 0005854 184.5983 175.5211 15.45831456634999 NANOSATC-BR1 1 40024U 14033Q 26034.52397817 .00020688 00000+0 78806-3 0 9993 2 40024 98.0867 55.4424 0002173 306.4264 53.6772 15.26758579633559 QB50P1 1 40025U 14033R 26034.52246989 .00012181 00000+0 64192-3 0 9999 2 40025 98.0991 36.5237 0008118 335.6818 24.4029 15.15730122632769 QB50P2 1 40032U 14033Y 26034.47857729 .00009874 00000+0 56341-3 0 9993 2 40032 98.0692 23.2942 0005594 272.3963 87.6626 15.12967890632433 PERSEUS-M2 1 40037U 14033AD 26034.62770973 .00002221 00000+0 20852-3 0 9997 2 40037 97.9827 342.6248 0012901 28.6339 331.5587 14.94981415630828 PERSEUS-M1 1 40039U 14033AF 26034.40903303 .00002087 00000+0 19584-3 0 9990 2 40039 97.9521 336.5098 0012558 28.1165 332.0730 14.95061520630649 POLYITAN-1 1 40042U 14033AJ 26034.50764462 .00020160 00000+0 73861-3 0 9996 2 40042 98.1057 48.5705 0005903 249.4592 110.6013 15.28039849633141 TIGRISAT 1 40043U 14033AK 26034.41890107 .00003672 00000+0 43221-3 0 9999 2 40043 97.7607 187.7044 0050513 152.3811 208.0104 14.84510205625777 AEROCUBE 6A 1 40045U 14033AM 26034.43084154 .00007672 00000+0 67224-3 0 9993 2 40045 97.7084 203.0639 0040697 102.9087 257.6685 14.96305018626602 AEROCUBE 6B 1 40046U 14033AN 26034.42529867 .00008926 00000+0 75487-3 0 9991 2 40046 97.7075 202.5870 0039517 94.7641 265.8095 14.97669431626729 CANX-4 1 40055U 14034C 26034.45709329 .00001270 00000+0 17124-3 0 9997 2 40055 98.3323 264.7210 0014151 81.4570 278.8244 14.80965897624737 CANX-5 1 40056U 14034D 26034.59217712 .00001372 00000+0 18430-3 0 9997 2 40056 98.3325 264.8968 0014126 81.2319 279.0491 14.80983399615567 UKUBE-1 1 40074U 14037F 26034.52170332 .00012278 00000+0 73873-3 0 9998 2 40074 98.4190 24.0410 0000484 130.1218 230.0051 15.11007716628355 BRITE-PL2 (HEWELIUSZ) 1 40119U 14049B 26034.31645577 .00003437 00000+0 32748-3 0 9999 2 40119 97.8982 145.4558 0014019 188.4272 171.6714 14.93985065621454 AEROCUBE 5C 1 40965U 15058B 26034.16225877 .00003022 00000+0 27575-3 0 9991 2 40965 64.7696 319.2672 0132870 116.0481 245.4381 14.90568068345675 AEROCUBE 7 1 40966U 15058C 26034.46054965 .00004754 00000+0 39179-3 0 9999 2 40966 64.7636 303.3070 0123003 115.2690 246.1230 14.94505988345966 FOX-1A (AO-85) 1 40967U 15058D 26034.23255247 .00003449 00000+0 31830-3 0 9997 2 40967 64.7777 334.9960 0130570 109.5495 251.9771 14.90073585 93601 SINOD-D 1 1 40968U 15058E 26034.18576024 .00004701 00000+0 38973-3 0 9998 2 40968 64.7775 318.1675 0119023 107.2250 254.1932 14.94649316 96625 SNAP-3 ALICE 1 40970U 15058G 26034.51479631 .00055811 00000+0 13765-2 0 9993 2 40970 64.7571 198.1688 0038706 91.8999 268.6571 15.39429516 96186 LMRST-SAT 1 40971U 15058H 26034.22157445 .00003232 00000+0 30045-3 0 9999 2 40971 64.7783 331.1207 0132872 111.4612 250.0730 14.89706857 93592 SNAP-3 EDDIE 1 40972U 15058J 26034.53382822 .00066323 00000+0 15781-2 0 9992 2 40972 64.7497 189.7053 0040512 96.1511 264.4243 15.40373941 98312 PROPCUBE 3 1 40973U 15058K 26034.17636311 .00003887 00000+0 33258-3 0 9994 2 40973 64.7706 310.9071 0125722 113.3986 248.0408 14.93173104 94783 BISONSAT 1 40974U 15058L 26033.99555919 .00013532 00000+0 71803-3 0 9994 2 40974 64.7588 246.4180 0081796 107.3051 253.7041 15.12713123 95290 SNAP-3 JIMI 1 40975U 15058M 26034.11538388 .00006700 00000+0 47993-3 0 9993 2 40975 64.7655 283.4437 0108006 110.9508 250.3208 15.00564556 94099 PROPCUBE 1 (FLORA) 1 40976U 15058N 26034.25630732 .00002799 00000+0 27213-3 0 9992 2 40976 64.7767 350.0626 0131990 113.6394 247.8637 14.88382047 96329 SINOD-D 3 1 40977U 15058P 26034.24907840 .00004478 00000+0 38885-3 0 9992 2 40977 64.7749 333.7050 0120512 111.9692 249.4279 14.92841241 94755 HORYU-4 1 41340U 16012D 26034.42720993 .00066832 00000+0 87594-3 0 9993 2 41340 30.9926 306.5846 0002600 31.9558 328.1250 15.57233340549758 RAVAN 1 41849U 16067B 26034.63435583 .00039837 00000+0 89108-3 0 9996 2 41849 98.0100 269.8914 0008003 106.3492 253.8634 15.43351097507024 CELTEE 1 1 41850U 16067C 26034.08345682 .00007271 00000+0 36033-3 0 9993 2 41850 98.0846 251.4909 0001477 39.7277 320.4063 15.18088538505521 OPTICUBE 04 1 41851U 16067D 26034.49443078 .00003280 00000+0 21169-3 0 9997 2 41851 98.0818 239.7345 0015117 205.4946 154.5537 15.08957382505001 AEROCUBE 8D 1 41852U 16067E 26034.15836765 .00010316 00000+0 45250-3 0 9995 2 41852 98.0865 254.1803 0002385 227.0934 133.0100 15.22187252505661 AEROCUBE 8C 1 41853U 16067F 26034.53236038 .00010634 00000+0 46307-3 0 9992 2 41853 98.0732 251.9897 0005836 150.8905 209.2656 15.22411085505710 CORVUS BC2 1 42846U 17042X 26034.42987998 .00004301 00000+0 30463-3 0 9995 2 42846 97.3882 201.1860 0012784 205.0545 155.0064 15.05255267466931 CORVUS BC1 1 42847U 17042Y 26034.44172691 .00003850 00000+0 27131-3 0 9990 2 42847 97.3922 201.9168 0012068 178.6476 181.4786 15.05517507466964 MAKERSAT 0 1 43016U 17073D 26034.62449328 .00026227 00000+0 82116-3 0 9994 2 43016 97.4838 276.5204 0122345 26.7800 333.9684 15.25978384446058 SIRION PATHFINDER-2 1 43759U 18099B 26034.40038580 .00006309 00000+0 35957-3 0 9997 2 43759 97.4458 86.6326 0010160 50.3006 309.9119 15.13094988392385 CORVUS BC4 1 43767U 18099K 26034.10015435 .00004615 00000+0 27813-3 0 9997 2 43767 97.4268 80.9807 0010174 102.4291 257.8079 15.11216156392145 SPACEBEE-7 1 43816U 18099BL 26034.18795078 .00276433 00000+0 17352-2 0 9993 2 43816 97.4589 118.0164 0004351 294.7342 65.3470 15.75962893393736 SHIELDS 1 1 43850U 18104B 26034.49862881 .00618020 20912-3 56363-3 0 9995 2 43850 84.9936 224.5619 0002852 294.9605 65.1389 16.12579937399061 M2 PATHFINDER 1 45727U 20037E 26034.48359704 .00003955 00000+0 29118-3 0 9997 2 45727 97.8124 224.2391 0010909 243.6785 116.3320 15.03915656305392 NETSAT-4 1 46504U 20068U 26034.53469972 .00020999 00000+0 54621-3 0 9994 2 46504 97.8621 32.5248 0008513 82.3107 277.9103 15.38914366295186 NETSAT-3 1 46505U 20068V 26034.49498742 .00019367 00000+0 52713-3 0 9994 2 46505 97.8653 30.8999 0008320 94.1916 266.0279 15.37532924295101 NETSAT-1 1 46506U 20068W 26034.51209272 .00016558 00000+0 55703-3 0 9997 2 46506 97.8713 26.7041 0007871 108.2990 251.9107 15.30854312294822 NETSAT-2 1 46507U 20068X 26034.51106255 .00022415 00000+0 56633-3 0 9997 2 46507 97.8636 32.0399 0007062 103.6117 256.5914 15.39803506295124 WILDTRACKCUBE-SIMBA 1 47941U 21022K 26032.71702384 .00222913 00000+0 10076-2 0 9991 2 47941 97.4006 311.6495 0008146 122.7801 237.4255 15.83354813270101 GREENCUBE (IO-117) 1 53109U 22080E 26033.87005033 -.00000003 00000+0 00000+0 0 9992 2 53109 70.1639 344.9525 0009157 317.3038 42.6910 6.42583187 83439 SITRO-AIS 5 (KATYS) 1 57176U 23091L 26034.59465363 .00015122 00000+0 58801-3 0 9992 2 57176 97.5252 97.4269 0011629 208.7847 151.2751 15.26072082143946 SITRO-AIS 6 (CHIRKIN) 1 57192U 23091AC 26034.63985917 .00008283 00000+0 34562-3 0 9995 2 57192 97.5256 97.1932 0011787 207.4059 152.6557 15.23867074143936 SITRO-AIS 8 (ANOKHIN) 1 57193U 23091AD 26034.62586737 .00016890 00000+0 61572-3 0 9996 2 57193 97.5246 98.5627 0010919 205.3817 154.6888 15.28192285144027 SITRO-AIS 7 (FARTUSHNIY) 1 57194U 23091AE 26034.61926859 .00007000 00000+0 29450-3 0 9991 2 57194 97.5256 97.0560 0011493 208.7696 151.2909 15.23651138143926 SITRO-AIS 10 (BURDAEV) 1 57199U 23091AK 26034.63608551 .00021327 00000+0 66502-3 0 9991 2 57199 97.5259 102.4108 0007607 181.0521 179.0706 15.33232510144266 SITRO-AIS 9 (SHCHUKIN) 1 57201U 23091AM 26034.62633272 .00020975 00000+0 66138-3 0 9995 2 57201 97.5259 102.2194 0007624 182.1597 177.9614 15.32879236144252 SITRO-AIS 12 (SMIRENNIY) 1 57204U 23091AQ 26034.64010477 .00020872 00000+0 65317-3 0 9990 2 57204 97.5268 102.6247 0007654 174.9128 185.2193 15.33122691144273 SITRO-AIS 11 (SHEFFER) 1 57208U 23091AU 26034.62049387 .00021286 00000+0 65954-3 0 9991 2 57208 97.5266 102.7787 0007546 174.8561 185.2760 15.33436160144285 SITRO-AIS 25 1 59066U 24039R 26034.59380087 .00006005 00000+0 47507-3 0 9995 2 59066 95.3959 143.3427 0149732 75.1112 286.6640 14.92304779104794 SITRO-AIS 26 1 59067U 24039S 26034.57798978 .00005742 00000+0 45630-3 0 9998 2 59067 95.3959 143.2550 0150006 75.6080 286.1742 14.92121272104788 SITRO-AIS 27 1 59068U 24039T 26034.51723817 .00006186 00000+0 48738-3 0 9998 2 59068 95.3960 143.4262 0149162 74.7372 287.0287 14.92507571104793 SITRO-AIS 28 1 59071U 24039U 26034.63185034 .00006017 00000+0 47407-3 0 9993 2 59071 95.3959 143.5452 0148877 74.2001 287.5582 14.92543402104812 GRBBETA 1 60237U 24128C 26034.17123351 .00005733 00000+0 39974-3 0 9995 2 60237 61.9924 326.0495 0054204 106.9866 253.7176 15.05377014 86087 OOV-CUBE (TUBSAT-30) 1 60240U 24128F 26034.21382005 .00003489 00000+0 27185-3 0 9994 2 60240 61.9972 332.4826 0056784 105.0835 255.6548 15.01994639 85980 ROBUSTA-3A (MEDITERRAN*) 1 60243U 24128J 26034.22323626 .00011772 00000+0 72079-3 0 9998 2 60243 61.9888 321.2041 0054613 101.3288 259.3950 15.09355271 86186 LASARSAT 1 62391U 24247Q 26034.08864628 .00030315 00000+0 80377-3 0 9996 2 62391 44.9777 291.0248 0001994 201.7388 158.3414 15.37847010 62616 CROCUBE 1 62394U 24247T 26034.07674089 .00032915 00000+0 84577-3 0 9992 2 62394 44.9741 290.0196 0001864 172.0081 188.0836 15.38773792 62622